Hillsdale, MI

3:55 PM EDT on August 19, 2017 (GMT -0400)
Hillsdale Municipal

Weather History for KJYM - December, 2013

Change the Weather History Date:

Thursday, December 12, 2013

  Actual Average Record
Temperature  
Mean Temperature 12 °F -  
Max Temperature 18 °F 36 °F 62 °F (2015)
Min Temperature 5 °F 21 °F -11 °F (1962)
Degree Days  
Heating Degree Days 54    
Moisture  
Dew Point 2 °F    
Average Humidity 67    
Maximum Humidity 90    
Minimum Humidity 39    
Precipitation  
Precipitation 0.00 in - - ()
Sea Level Pressure  
Sea Level Pressure 30.29 in    
Wind  
Wind Speed 7 mph (WSW)    
Max Wind Speed 18 mph    
Max Gust Speed 25 mph    
Visibility 9 miles    
Events Snow    
Averages and records for this station are not official NWS values.
T = Trace of Precipitation, MM = Missing Value Source: NWS Daily Summary

Daily Weather History Graph

Daily Weather History Graph

Search for Another Location

Airport or City:

Trip Planner

Search our weather history database for the weather conditions in past years. The results will help you decide how hot, cold, wet, or windy it might be!

Date:

Astronomy

Dec. 12, 2013 Rise Set
Actual Time 7:57 AM EST 5:07 PM EST
Civil Twilight 7:25 AM EST 5:38 PM EST
Nautical Twilight 6:50 AM EST 6:14 PM EST
Astronomical Twilight 6:16 AM EST 6:47 PM EST
Moon 2:17 PM EST (12/12) 3:15 AM EST (12/12)
Length of Visible Light 10h 13m
Length of Day
9h 10m
Waxing Gibbous, 80% of the Moon is Illuminated
Dec 12
Waxing Gibbous
Dec 17
Full
Dec 25
Last Quarter
Jan 1
New
Jan 7
First Quarter

Hourly Weather History & Observations

Time (EST) Temp. Windchill Dew Point Humidity Pressure Visibility Wind Dir Wind Speed Gust Speed Precip Events Conditions
12:15 AM 7.7 °F - 5.0 °F 89% 30.37 in 1.8 mi Calm Calm - N/A Snow Light Snow
12:34 AM 7.7 °F - 5.4 °F 90% 30.37 in 2.0 mi Calm Calm - N/A Snow Light Snow
12:54 AM 7.3 °F - 4.8 °F 89% 30.38 in 4.0 mi Calm Calm - N/A Snow Light Snow
1:15 AM 8.2 °F 1.6 °F 5.7 °F 89% 30.38 in 4.0 mi WSW 3.5 mph - N/A Snow Light Snow
1:34 AM 8.4 °F -0.1 °F 5.7 °F 89% 30.39 in 10.0 mi WSW 4.6 mph - N/A   Overcast
1:55 AM 9.3 °F -0.5 °F 6.4 °F 88% 30.39 in 10.0 mi WSW 5.8 mph - N/A   Overcast
2:15 AM 9.1 °F -1.9 °F 6.3 °F 88% 30.39 in 10.0 mi WSW 6.9 mph - N/A   Overcast
2:34 AM 9.9 °F 0.2 °F 6.8 °F 87% 30.39 in 4.0 mi WSW 5.8 mph - N/A Snow Light Snow
2:55 AM 9.9 °F 0.2 °F 6.8 °F 87% 30.39 in 5.0 mi WSW 5.8 mph - N/A Snow Light Snow
3:14 AM 10.6 °F -0.2 °F 7.3 °F 87% 30.39 in 7.0 mi WSW 6.9 mph - N/A Snow Light Snow
3:35 AM 10.8 °F -2.0 °F 6.6 °F 83% 30.38 in 10.0 mi WSW 9.2 mph - N/A Snow Light Snow
3:55 AM 10.9 °F 0.2 °F 6.1 °F 81% 30.38 in 10.0 mi WSW 6.9 mph - N/A Snow Light Snow
4:14 AM 11.1 °F 0.4 °F 5.2 °F 77% 30.38 in 10.0 mi WSW 6.9 mph - N/A Snow Light Snow
4:35 AM 11.3 °F 0.7 °F 5.0 °F 76% 30.37 in 10.0 mi West 6.9 mph - N/A Snow Light Snow
4:55 AM 11.1 °F -1.6 °F 5.5 °F 78% 30.37 in 7.0 mi WSW 9.2 mph - N/A Snow Light Snow
5:14 AM 11.1 °F -2.4 °F 6.1 °F 80% 30.38 in 5.0 mi WSW 10.4 mph - N/A Snow Light Snow
5:35 AM 10.8 °F -3.6 °F 5.5 °F 79% 30.38 in 7.0 mi WSW 11.5 mph - N/A Snow Light Snow
5:55 AM 9.9 °F -3.1 °F 4.6 °F 79% 30.38 in 10.0 mi West 9.2 mph - N/A Snow Light Snow
6:14 AM 8.6 °F -1.3 °F 3.6 °F 80% 30.37 in 10.0 mi WSW 5.8 mph - N/A   Mostly Cloudy
6:35 AM 7.7 °F -2.4 °F 2.8 °F 81% 30.37 in 10.0 mi WSW 5.8 mph - N/A   Clear
6:55 AM 7.0 °F -3.3 °F 2.3 °F 81% 30.36 in 10.0 mi SW 5.8 mph - N/A   Clear
7:14 AM 6.3 °F -4.1 °F 1.8 °F 82% 30.37 in 10.0 mi WSW 5.8 mph - N/A   Clear
7:35 AM 6.1 °F -5.6 °F 1.6 °F 82% 30.36 in 10.0 mi SW 6.9 mph - N/A   Clear
7:55 AM 5.4 °F -6.5 °F 0.9 °F 82% 30.37 in 10.0 mi WSW 6.9 mph - N/A   Clear
8:14 AM 5.4 °F -6.5 °F 0.9 °F 82% 30.36 in 10.0 mi WSW 6.9 mph - N/A   Clear
8:35 AM 5.7 °F -7.2 °F 1.2 °F 82% 30.36 in 10.0 mi SW 8.1 mph - N/A   Clear
8:54 AM 6.4 °F -7.3 °F 1.2 °F 79% 30.35 in 10.0 mi SW 9.2 mph - N/A   Scattered Clouds
9:14 AM 6.4 °F -7.3 °F 0.3 °F 76% 30.35 in 10.0 mi SW 9.2 mph - N/A   Clear
9:35 AM 7.2 °F -6.4 °F -0.2 °F 72% 30.35 in 10.0 mi WSW 9.2 mph - N/A   Clear
9:54 AM 7.9 °F -5.5 °F -0.6 °F 68% 30.35 in 10.0 mi SW 9.2 mph - N/A   Scattered Clouds
10:15 AM 8.1 °F -5.3 °F -1.3 °F 66% 30.35 in 10.0 mi WSW 9.2 mph - N/A   Mostly Cloudy
10:35 AM 9.1 °F -4.0 °F -4.0 °F 55% 30.34 in 10.0 mi SW 9.2 mph - N/A   Mostly Cloudy
10:54 AM 9.9 °F -6.7 °F -8.5 °F 43% 30.35 in 10.0 mi WSW 15.0 mph 18.4 mph N/A   Overcast
11:15 AM 10.4 °F -4.1 °F -8.5 °F 42% 30.34 in 10.0 mi West 11.5 mph - N/A   Overcast
11:35 AM 10.8 °F -5.0 °F -8.5 °F 42% 30.32 in 10.0 mi WSW 13.8 mph 18.4 mph N/A   Overcast
11:54 AM 10.9 °F -4.1 °F -7.2 °F 44% 30.30 in 10.0 mi SW 12.7 mph 20.7 mph N/A   Overcast
12:15 PM 11.1 °F -2.4 °F -4.7 °F 49% 30.28 in 10.0 mi SW 10.4 mph - N/A   Overcast
12:35 PM 10.6 °F -3.1 °F -5.1 °F 49% 30.27 in 10.0 mi SW 10.4 mph - N/A   Overcast
12:54 PM 11.1 °F -3.9 °F -4.7 °F 49% 30.26 in 10.0 mi SW 12.7 mph 20.7 mph N/A   Overcast
1:15 PM 12.4 °F -2.3 °F -4.2 °F 48% 30.26 in 10.0 mi WSW 12.7 mph 17.3 mph N/A   Overcast
1:34 PM 13.6 °F -1.3 °F -4.9 °F 44% 30.25 in 10.0 mi WSW 13.8 mph 20.7 mph N/A   Mostly Cloudy
1:55 PM 15.4 °F 0.4 °F -4.4 °F 41% 30.24 in 10.0 mi WSW 15.0 mph 19.6 mph N/A   Clear
2:15 PM 16.5 °F 1.3 °F -4.5 °F 39% 30.23 in 10.0 mi WSW 16.1 mph 21.9 mph N/A   Clear
2:34 PM 16.7 °F 2.0 °F -4.4 °F 39% 30.22 in 10.0 mi WSW 15.0 mph 25.3 mph N/A   Clear
2:55 PM 16.2 °F -0.2 °F -3.6 °F 42% 30.22 in 10.0 mi WSW 18.4 mph 25.3 mph N/A   Clear
3:15 PM 16.2 °F 0.8 °F -2.4 °F 44% 30.22 in 10.0 mi West 16.1 mph 23.0 mph N/A   Clear
3:55 PM 16.2 °F 1.9 °F -0.4 °F 48% 30.22 in 10.0 mi West 13.8 mph 20.7 mph N/A   Clear
4:14 PM 16.2 °F 3.9 °F 0.1 °F 49% 30.21 in 10.0 mi West 10.4 mph - N/A   Clear
4:35 PM 16.2 °F 1.3 °F 0.9 °F 51% 30.21 in 10.0 mi WSW 15.0 mph 19.6 mph N/A   Clear
4:55 PM 15.4 °F 3.0 °F 1.0 °F 53% 30.22 in 10.0 mi West 10.4 mph 19.6 mph N/A   Clear
5:14 PM 15.1 °F 3.3 °F 1.2 °F 54% 30.22 in 10.0 mi WSW 9.2 mph 17.3 mph N/A   Clear
5:35 PM 14.5 °F 3.6 °F 1.6 °F 57% 30.21 in 10.0 mi WSW 8.1 mph - N/A   Clear
5:54 PM 14.4 °F 4.3 °F 1.9 °F 58% 30.21 in 10.0 mi WSW 6.9 mph - N/A   Clear
6:15 PM 14.0 °F 3.9 °F 2.1 °F 59% 30.20 in 10.0 mi WSW 6.9 mph - N/A   Clear
6:35 PM 13.5 °F 4.4 °F 2.3 °F 61% 30.20 in 10.0 mi WSW 5.8 mph - N/A   Scattered Clouds
6:54 PM 13.3 °F 4.2 °F 2.5 °F 62% 30.20 in 10.0 mi WSW 5.8 mph - N/A   Scattered Clouds
7:15 PM 12.9 °F 5.2 °F 2.7 °F 64% 30.20 in 10.0 mi WSW 4.6 mph - N/A   Clear
7:35 PM 12.7 °F 5.0 °F 3.0 °F 65% 30.19 in 10.0 mi WSW 4.6 mph - N/A   Clear
7:54 PM 13.5 °F 4.4 °F 3.7 °F 65% 30.19 in 10.0 mi WSW 5.8 mph - N/A   Clear
8:15 PM 14.4 °F 4.3 °F 5.0 °F 66% 30.19 in 10.0 mi WSW 6.9 mph - N/A   Clear
8:35 PM 14.5 °F 4.6 °F 5.4 °F 67% 30.18 in 10.0 mi WSW 6.9 mph - N/A   Clear
8:54 PM 15.1 °F 4.2 °F 6.1 °F 68% 30.19 in 10.0 mi WSW 8.1 mph - N/A   Clear
9:15 PM 15.3 °F 4.4 °F 6.6 °F 69% 30.19 in 10.0 mi West 8.1 mph - N/A   Clear
9:35 PM 15.6 °F 3.2 °F 7.3 °F 70% 30.19 in 10.0 mi West 10.4 mph - N/A   Scattered Clouds
9:54 PM 16.9 °F 5.5 °F 8.2 °F 69% 30.18 in 10.0 mi WSW 9.2 mph - N/A   Mostly Cloudy
10:15 PM 17.2 °F 6.8 °F 9.0 °F 70% 30.17 in 10.0 mi West 8.1 mph - N/A   Overcast
10:34 PM 18.0 °F 6.9 °F 9.9 °F 71% 30.17 in 10.0 mi West 9.2 mph 16.1 mph N/A   Overcast
10:55 PM 18.1 °F 6.3 °F 10.2 °F 71% 30.17 in 10.0 mi West 10.4 mph - N/A   Overcast
11:15 PM 18.7 °F 7.8 °F 10.8 °F 71% 30.16 in 10.0 mi West 9.2 mph 16.1 mph N/A   Overcast
11:34 PM 18.9 °F 8.0 °F 10.8 °F 71% 30.16 in 10.0 mi West 9.2 mph 17.3 mph N/A   Overcast
11:55 PM 18.9 °F 7.2 °F 10.8 °F 71% 30.16 in 10.0 mi West 10.4 mph 19.6 mph N/A   Overcast